This demonstration page uses our WeatherBlox Daily Observations layout. Learn more.

Left ArrowRight Arrow

39.08367, -84.50855

Hourly Observations for May 22, 2020

Temp ( °F °C ) Dew Point ( °F °C ) Humidity (%) Winds ( mph kmh ) Pressure ( in mb ) Visibility ( mi km ) Precip ( " mm )
12:53 am 00:53 Cloudy 60 15.6 59 15 96 96 Calm 30.06 1018 10 16.0934 0 0
1:14 am 01:14 Mostly Cloudy with Mist and Fog 58 14.4 57 13.9 97 97 Calm 30.06 1018 1.75 2.816345 0 0
1:23 am 01:23 Mostly Cloudy with Fog 56 13.3 56 13.3 100 100 Calm 30.06 1018 0.5 0.80467 0 0
1:30 am 01:30 Mostly Cloudy with Fog 56 13.3 56 13.3 100 100 Calm 30.06 1018 0.5 0.80467 0 0
1:40 am 01:40 Mostly Cloudy with Mist and Fog 57 13.9 57 13.9 100 100 Calm 30.06 1018 0.75 1.207005 0 0
1:53 am 01:53 Cloudy with Fog 56 13.3 56 13.3 100 100 Calm 30.05 1018 0.25 0.402335 0 0
2:07 am 02:07 Cloudy with Fog 55 12.8 55 12.8 100 100 Calm 30.05 1018 0.25 0.402335 0 0
2:53 am 02:53 Mostly Cloudy with Fog 55 12.8 55 12.8 100 100 Calm 30.05 1018 0.25 0.402335 0 0
3:53 am 03:53 Mostly Cloudy with Fog 55 12.8 55 12.8 100 100 Calm 30.04 1017 0.25 0.402335 0 0
4:45 am 04:45 Mostly Cloudy with Fog 55 12.8 55 12.8 100 100 Calm 30.05 1018 0.5 0.80467 0 0
4:53 am 04:53 Mostly Cloudy with Mist and Fog 56 13.3 56 13.3 100 100 Calm 30.04 1017 0.75 1.207005 0 0
5:04 am 05:04 Mostly Cloudy with Mist and Fog 56 13.3 56 13.3 100 100 Calm 30.05 1018 1 1.60934 0 0
5:25 am 05:25 Cloudy with Mist and Fog 56 13.3 56 13.3 100 100 NE 3 6 30.06 1018 3 4.82802 0 0
5:53 am 05:53 Cloudy 56 13.3 56 13.3 100 100 Calm 30.06 1018 7 11.26538 0 0
6:16 am 06:16 Cloudy 57 13.9 56 13.3 96 96 Calm 30.05 1018 7 11.26538 0 0
6:53 am 06:53 Mostly Cloudy with Mist and Fog 57 13.9 56 13.3 96 96 Calm 30.05 1018 6 9.65604 0 0
7:39 am 07:39 Cloudy 58 14.4 57 13.9 97 97 Calm 30.06 1018 10 16.0934 0 0
7:53 am 07:53 Cloudy 59 15 58 14.4 96 96 Calm 30.05 1018 10 16.0934 0 0
8:53 am 08:53 Cloudy 60 15.6 59 15 96 96 Calm 30.06 1018 10 16.0934 0 0
9:53 am 09:53 Cloudy 63 17.2 60 15.6 90 90 Calm 30.06 1018 10 16.0934 0 0
10:53 am 10:53 Cloudy 64 17.8 60 15.6 87 87 Calm 30.06 1018 10 16.0934 0 0
11:53 am 11:53 Mostly Cloudy 69 20.6 62 16.7 78 78 Calm 30.05 1018 10 16.0934 0 0
12:53 pm 12:53 Mostly Cloudy 69 20.6 61 16.1 76 76 VRB 3 6 30.03 1017 10 16.0934 0 0
1:53 pm 13:53 Mostly Cloudy 72 22.2 59 15 64 64 VRB 3 6 30.01 1016 10 16.0934 0 0
2:53 pm 14:53 Cloudy 74 23.3 57 13.9 56 56 Calm 30 1016 10 16.0934 0 0
3:53 pm 15:53 Mostly Cloudy 76 24.4 57 13.9 52 52 W 5 7 29.98 1015 10 16.0934 0 0
4:53 pm 16:53 Mostly Cloudy 77 25 58 14.4 52 52 NNE 5 7 29.97 1015 10 16.0934 0 0
5:53 pm 17:53 Cloudy 76 24.4 57 13.9 52 52 ENE 3 6 29.96 1015 10 16.0934 0 0
6:53 pm 18:53 Partly Cloudy 76 24.4 58 14.4 54 54 E 5 7 29.95 1014 10 16.0934 0 0
7:53 pm 19:53 Sunny 74 23.3 59 15 60 60 ENE 3 6 29.94 1014 10 16.0934 0 0
8:53 pm 20:53 Clear 67 19.4 62 16.7 84 84 Calm 29.95 1014 10 16.0934 0 0
9:53 pm 21:53 Mostly Clear 63 17.2 59 15 87 87 Calm 29.98 1015 10 16.0934 0 0
10:53 pm 22:53 Partly Cloudy 60 15.6 58 14.4 93 93 Calm 30 1016 10 16.0934 0 0
11:53 pm 23:53 Clear 59 15 57 13.9 93 93 Calm 30 1016 9 14.48406 0 0

Powered by AerisWeather